When you browse on this site, cookies collect data to enhance your experience and personalize the content and advertising you see.
Visit our Privacy Policy to learn more. By continuing to use the site, you agree to this use of cookies and data.
  • In Hungary
  • List of Countries
  • For 7 days
  • Water Temperature
  • Weather Map
  • News
  • Weather Widgets
  • user-avatar
    Login

    Hourly Weather Malinkino

    Today, 18 October, Friday

    Time Temperature Precipitation Wind Pressure Humidity
    00:00 +8°C° 0.1 mm 1 mps 748 mmHg 97%
    01:00 +7°C° 0.3 mm 2 mps 748 mmHg 97%
    02:00 +6°C° 0.3 mm 2 mps 748 mmHg 97%
    03:00 +6°C° 0.3 mm 2 mps 748 mmHg 97%
    04:00 +4°C° 0.6 mm 3 mps 748 mmHg 97%
    05:00 +4°C° 0.6 mm 4 mps 747 mmHg 96%
    06:00 +3°C° 0.6 mm 4 mps 747 mmHg 96%
    07:00 +3°C° 0.3 mm 4 mps 747 mmHg 95%
    08:00 +3°C° 0.3 mm 4 mps 747 mmHg 94%
    09:00 +3°C° 0.3 mm 4 mps 747 mmHg 93%
    10:00 +2°C° 0.3 mm 5 mps 747 mmHg 93%
    11:00 +1°C° 0.3 mm 5 mps 747 mmHg 93%
    12:00 +1°C° 0.3 mm 6 mps 747 mmHg 93%
    13:00 +1°C° 0.5 mm 6 mps 747 mmHg 93%
    14:00 +1°C° 0.5 mm 6 mps 748 mmHg 93%
    15:00 +1°C° 0.5 mm 6 mps 748 mmHg 92%
    16:00 -1°C° 0.2 mm 6 mps 748 mmHg 92%
    17:00 -1°C° 0.2 mm 6 mps 749 mmHg 91%
    18:00 -1°C° 0.2 mm 6 mps 749 mmHg 90%
    19:00 -1°C° 0 mm 6 mps 750 mmHg 89%
    20:00 -1°C° 0 mm 6 mps 751 mmHg 88%
    21:00 -1°C° 0 mm 6 mps 751 mmHg 88%
    22:00 -1°C° 0 mm 6 mps 752 mmHg 86%
    23:00 -1°C° 0 mm 5 mps 752 mmHg 85%

    Tomorrow, 19 October, Saturday

    Time Temperature Precipitation Wind Pressure Humidity
    00:00 -1°C° 0 mm 5 mps 752 mmHg 84%
    01:00 -1°C° 0 mm 5 mps 753 mmHg 84%
    02:00 -1°C° 0 mm 4 mps 753 mmHg 84%
    03:00 -2°C° 0 mm 4 mps 754 mmHg 85%
    04:00 -3°C° 0 mm 4 mps 754 mmHg 87%
    05:00 -2°C° 0 mm 3 mps 754 mmHg 90%
    06:00 -4°C° 0 mm 3 mps 755 mmHg 92%
    07:00 -2°C° 0 mm 3 mps 755 mmHg 89%
    08:00 -2°C° 0 mm 3 mps 756 mmHg 87%
    09:00 -1°C° 0 mm 3 mps 756 mmHg 84%
    10:00 -1°C° 0 mm 3 mps 756 mmHg 83%
    11:00 0°C° 0 mm 3 mps 757 mmHg 82%
    12:00 0°C° 0 mm 3 mps 757 mmHg 81%
    13:00 0°C° 0 mm 3 mps 757 mmHg 81%
    14:00 0°C° 0 mm 3 mps 757 mmHg 80%
    15:00 0°C° 0 mm 3 mps 757 mmHg 79%
    16:00 +1°C° 0 mm 2 mps 757 mmHg 80%
    17:00 +1°C° 0 mm 2 mps 757 mmHg 81%
    18:00 +1°C° 0 mm 2 mps 757 mmHg 82%
    19:00 +1°C° 0 mm 2 mps 758 mmHg 83%
    20:00 +2°C° 0 mm 1 mps 758 mmHg 84%
    21:00 +2°C° 0 mm 1 mps 758 mmHg 84%
    22:00 +1°C° 0 mm 1 mps 758 mmHg 85%
    23:00 +1°C° 0 mm 1 mps 758 mmHg 86%

    Day after tomorrow, 20 October, Sunday

    Time Temperature Precipitation Wind Pressure Humidity
    00:00 +1°C° 0 mm 1 mps 758 mmHg 87%
    01:00 0°C° 0 mm 1 mps 758 mmHg 88%
    02:00 0°C° 0 mm 1 mps 758 mmHg 89%
    03:00 0°C° 0 mm 1 mps 758 mmHg 90%
    04:00 -2°C° 0 mm 2 mps 758 mmHg 90%
    05:00 -2°C° 0 mm 2 mps 758 mmHg 90%
    06:00 -2°C° 0 mm 2 mps 758 mmHg 90%
    07:00 -1°C° 0 mm 2 mps 758 mmHg 87%
    08:00 0°C° 0 mm 3 mps 757 mmHg 85%
    09:00 +1°C° 0 mm 3 mps 757 mmHg 82%
    10:00 +2°C° 0 mm 3 mps 757 mmHg 82%
    11:00 +3°C° 0 mm 4 mps 757 mmHg 81%
    12:00 +4°C° 0 mm 4 mps 757 mmHg 81%
    13:00 +4°C° 0 mm 4 mps 756 mmHg 82%
    14:00 +4°C° 0 mm 4 mps 756 mmHg 84%
    15:00 +5°C° 0 mm 4 mps 756 mmHg 85%
    16:00 +5°C° 0 mm 5 mps 756 mmHg 87%
    17:00 +5°C° 0 mm 5 mps 755 mmHg 89%
    18:00 +5°C° 0 mm 5 mps 755 mmHg 91%
    19:00 +5°C° 0 mm 5 mps 755 mmHg 91%
    20:00 +5°C° 0 mm 5 mps 755 mmHg 92%
    21:00 +5°C° 0 mm 5 mps 755 mmHg 92%
    22:00 +5°C° 0 mm 5 mps 754 mmHg 92%
    23:00 +6°C° 0 mm 5 mps 754 mmHg 93%

    21 October, Monday

    Time Temperature Precipitation Wind Pressure Humidity
    00:00 +5°C° 0 mm 6 mps 753 mmHg 93%
    01:00 +5°C° 0.6 mm 6 mps 753 mmHg 93%
    02:00 +6°C° 0.6 mm 5 mps 753 mmHg 94%
    03:00 +6°C° 0.6 mm 5 mps 753 mmHg 94%
    04:00 +7°C° 0.3 mm 5 mps 753 mmHg 95%
    05:00 +7°C° 0.3 mm 5 mps 753 mmHg 95%
    06:00 +7°C° 0.3 mm 5 mps 753 mmHg 96%
    07:00 +7°C° 0.1 mm 4 mps 753 mmHg 96%
    08:00 +7°C° 0.1 mm 4 mps 753 mmHg 96%
    09:00 +7°C° 0.1 mm 4 mps 753 mmHg 96%
    10:00 +7°C° 0.1 mm 4 mps 753 mmHg 94%
    11:00 +8°C° 0.1 mm 4 mps 753 mmHg 92%
    12:00 +10°C° 0.1 mm 4 mps 753 mmHg 90%
    13:00 +10°C° 0 mm 4 mps 753 mmHg 90%
    14:00 +10°C° 0 mm 4 mps 753 mmHg 90%
    15:00 +10°C° 0 mm 4 mps 752 mmHg 91%
    16:00 +10°C° 0 mm 4 mps 752 mmHg 91%
    17:00 +8°C° 0 mm 4 mps 752 mmHg 92%
    18:00 +8°C° 0 mm 4 mps 751 mmHg 92%
    19:00 +8°C° 0 mm 5 mps 751 mmHg 91%
    20:00 +9°C° 0 mm 5 mps 750 mmHg 91%
    21:00 +9°C° 0 mm 6 mps 750 mmHg 90%
    22:00 +9°C° 0 mm 6 mps 749 mmHg 89%
    23:00 +9°C° 0 mm 6 mps 749 mmHg 88%

    22 October, Tuesday

    Time Temperature Precipitation Wind Pressure Humidity
    00:00 +9°C° 0 mm 6 mps 748 mmHg 88%
    01:00 +9°C° 0 mm 6 mps 747 mmHg 88%
    02:00 +9°C° 0 mm 6 mps 747 mmHg 88%
    03:00 +9°C° 0 mm 7 mps 746 mmHg 89%
    04:00 +9°C° 0 mm 7 mps 746 mmHg 89%
    05:00 +9°C° 0 mm 7 mps 745 mmHg 88%
    06:00 +7°C° 0 mm 8 mps 744 mmHg 88%
    07:00 +9°C° 0 mm 8 mps 743 mmHg 85%
    08:00 +8°C° 0 mm 9 mps 742 mmHg 82%
    09:00 +9°C° 0 mm 10 mps 741 mmHg 79%
    10:00 +9°C° 0.6 mm 10 mps 741 mmHg 81%
    11:00 +10°C° 0.6 mm 9 mps 740 mmHg 84%
    12:00 +8°C° 0.6 mm 9 mps 739 mmHg 86%
    13:00 +10°C° 0.3 mm 9 mps 740 mmHg 86%
    14:00 +10°C° 0.3 mm 9 mps 740 mmHg 86%
    15:00 +10°C° 0.3 mm 9 mps 740 mmHg 86%
    16:00 +9°C° 0.2 mm 7 mps 740 mmHg 86%
    17:00 +8°C° 0.2 mm 6 mps 741 mmHg 87%
    18:00 +8°C° 0.2 mm 5 mps 741 mmHg 88%
    19:00 +7°C° 0 mm 5 mps 742 mmHg 87%
    20:00 +7°C° 0 mm 5 mps 742 mmHg 87%
    21:00 +6°C° 0 mm 5 mps 743 mmHg 86%
    22:00 +5°C° 0 mm 6 mps 743 mmHg 85%
    23:00 +4°C° 0 mm 6 mps 744 mmHg 83%

    23 October, Wednesday

    Time Temperature Precipitation Wind Pressure Humidity
    00:00 +4°C° 0 mm 7 mps 744 mmHg 81%
    01:00 +3°C° 0 mm 7 mps 745 mmHg 79%
    02:00 +2°C° 0 mm 7 mps 746 mmHg 78%
    03:00 +2°C° 0 mm 7 mps 747 mmHg 77%
    04:00 +1°C° 0 mm 6 mps 748 mmHg 77%
    05:00 -1°C° 0 mm 6 mps 749 mmHg 77%
    06:00 -1°C° 0 mm 5 mps 750 mmHg 78%
    07:00 -1°C° 0 mm 5 mps 750 mmHg 76%
    08:00 0°C° 0 mm 5 mps 751 mmHg 75%
    09:00 0°C° 0 mm 5 mps 752 mmHg 73%
    10:00 +1°C° 0 mm 5 mps 752 mmHg 69%
    11:00 +1°C° 0 mm 5 mps 752 mmHg 65%
    12:00 +2°C° 0 mm 5 mps 753 mmHg 61%
    13:00 +2°C° 0 mm 5 mps 753 mmHg 62%
    14:00 +2°C° 0 mm 5 mps 753 mmHg 63%
    15:00 +2°C° 0 mm 5 mps 752 mmHg 65%
    16:00 +2°C° 0 mm 5 mps 753 mmHg 68%
    17:00 +1°C° 0 mm 5 mps 753 mmHg 71%
    18:00 +1°C° 0 mm 5 mps 753 mmHg 74%
    19:00 0°C° 0 mm 5 mps 752 mmHg 74%
    20:00 0°C° 0 mm 5 mps 752 mmHg 75%
    21:00 0°C° 0 mm 5 mps 752 mmHg 75%
    22:00 0°C° 0 mm 5 mps 752 mmHg 77%
    23:00 0°C° 0 mm 5 mps 752 mmHg 78%
    Show more